Previsão horária em Barnasie

Hoje, 21 Outubro, Quarta-feira

Tempo Temperatura Precipitação Vento Pressão Humidade
00:00 +4°C° 0 mm 2 m/s 709 mmHg 81%
01:00 +4°C° 0 mm 2 m/s 709 mmHg 79%
02:00 +4°C° 0 mm 2 m/s 709 mmHg 79%
03:00 +4°C° 0 mm 2 m/s 708 mmHg 79%
04:00 +4°C° 0 mm 2 m/s 708 mmHg 79%
05:00 +4°C° 0 mm 2 m/s 708 mmHg 79%
06:00 +4°C° 0 mm 2 m/s 708 mmHg 78%
07:00 +4°C° 0 mm 2 m/s 708 mmHg 78%
08:00 +6°C° 0 mm 2 m/s 708 mmHg 73%
09:00 +8°C° 0 mm 2 m/s 708 mmHg 68%
10:00 +10°C° 0 mm 2 m/s 709 mmHg 63%
11:00 +12°C° 0 mm 2 m/s 709 mmHg 61%
12:00 +13°C° 0 mm 2 m/s 709 mmHg 59%
13:00 +15°C° 0 mm 2 m/s 708 mmHg 57%
14:00 +13°C° 0 mm 2 m/s 708 mmHg 63%
15:00 +12°C° 0 mm 2 m/s 708 mmHg 70%
16:00 +10°C° 0 mm 2 m/s 707 mmHg 76%
17:00 +9°C° 0 mm 2 m/s 707 mmHg 79%
18:00 +8°C° 0 mm 2 m/s 707 mmHg 82%
19:00 +7°C° 0 mm 2 m/s 707 mmHg 85%
20:00 +7°C° 0 mm 2 m/s 707 mmHg 85%
21:00 +7°C° 0 mm 2 m/s 707 mmHg 84%
22:00 +7°C° 0 mm 2 m/s 707 mmHg 83%
23:00 +7°C° 0 mm 2 m/s 708 mmHg 84%

Amanhã, 22 Outubro, Quinta-feira

Tempo Temperatura Precipitação Vento Pressão Humidade
00:00 +7°C° 0 mm 2 m/s 708 mmHg 85%
01:00 +7°C° 0 mm 2 m/s 708 mmHg 85%
02:00 +6°C° 0 mm 2 m/s 708 mmHg 87%
03:00 +6°C° 0 mm 2 m/s 708 mmHg 88%
04:00 +6°C° 0 mm 2 m/s 708 mmHg 89%
05:00 +6°C° 0 mm 2 m/s 708 mmHg 88%
06:00 +6°C° 0 mm 2 m/s 708 mmHg 87%
07:00 +7°C° 0 mm 2 m/s 708 mmHg 86%
08:00 +9°C° 0 mm 2 m/s 709 mmHg 79%
09:00 +12°C° 0 mm 2 m/s 709 mmHg 72%
10:00 +14°C° 0 mm 2 m/s 709 mmHg 66%
11:00 +15°C° 0 mm 1 m/s 709 mmHg 64%
12:00 +16°C° 0 mm 1 m/s 709 mmHg 62%
13:00 +18°C° 0 mm 1 m/s 709 mmHg 61%
14:00 +16°C° 0 mm 1 m/s 709 mmHg 67%
15:00 +15°C° 0 mm 1 m/s 709 mmHg 74%
16:00 +13°C° 0 mm 1 m/s 708 mmHg 80%
17:00 +12°C° 0 mm 1 m/s 708 mmHg 82%
18:00 +12°C° 0 mm 1 m/s 708 mmHg 85%
19:00 +11°C° 0 mm 1 m/s 708 mmHg 87%
20:00 +11°C° 0 mm 1 m/s 708 mmHg 86%
21:00 +10°C° 0 mm 1 m/s 708 mmHg 85%
22:00 +10°C° 0 mm 1 m/s 708 mmHg 84%
23:00 +10°C° 0 mm 1 m/s 708 mmHg 84%

Depois de amanhã, 23 Outubro, Sexta-feira

Tempo Temperatura Precipitação Vento Pressão Humidade
00:00 +10°C° 0 mm 1 m/s 708 mmHg 84%
01:00 +9°C° 0 mm 2 m/s 708 mmHg 84%
02:00 +8°C° 0 mm 2 m/s 707 mmHg 85%
03:00 +8°C° 0 mm 2 m/s 707 mmHg 85%
04:00 +8°C° 0 mm 2 m/s 707 mmHg 85%
05:00 +7°C° 0 mm 2 m/s 707 mmHg 85%
06:00 +8°C° 0 mm 1 m/s 707 mmHg 86%
07:00 +8°C° 0 mm 1 m/s 706 mmHg 86%
08:00 +10°C° 0 mm 1 m/s 707 mmHg 81%
09:00 +11°C° 0 mm 1 m/s 707 mmHg 76%
10:00 +13°C° 0 mm 1 m/s 707 mmHg 71%
11:00 +14°C° 0 mm 1 m/s 707 mmHg 68%
12:00 +15°C° 0 mm 1 m/s 706 mmHg 66%
13:00 +16°C° 0 mm 1 m/s 706 mmHg 64%
14:00 +15°C° 0 mm 1 m/s 706 mmHg 70%
15:00 +14°C° 0 mm 1 m/s 706 mmHg 76%
16:00 +13°C° 0 mm 1 m/s 705 mmHg 82%
17:00 +12°C° 0 mm 1 m/s 705 mmHg 85%
18:00 +11°C° 0 mm 1 m/s 705 mmHg 88%
19:00 +10°C° 0 mm 1 m/s 705 mmHg 91%
20:00 +10°C° 0 mm 1 m/s 705 mmHg 91%
21:00 +10°C° 0 mm 1 m/s 705 mmHg 92%
22:00 +10°C° 0 mm 1 m/s 704 mmHg 92%
23:00 +9°C° 0 mm 1 m/s 704 mmHg 92%

24 Outubro, Sábado

Tempo Temperatura Precipitação Vento Pressão Humidade
00:00 +9°C° 0 mm 1 m/s 704 mmHg 92%
01:00 +9°C° 0 mm 1 m/s 704 mmHg 92%
02:00 +9°C° 0 mm 1 m/s 704 mmHg 92%
03:00 +9°C° 0 mm 1 m/s 703 mmHg 91%
04:00 +10°C° 0 mm 1 m/s 703 mmHg 91%
05:00 +10°C° 0.4 mm 1 m/s 703 mmHg 92%
06:00 +10°C° 0.4 mm 1 m/s 703 mmHg 93%
07:00 +10°C° 0.4 mm 1 m/s 703 mmHg 94%
08:00 +9°C° 0.9 mm 2 m/s 704 mmHg 94%
09:00 +10°C° 0.9 mm 2 m/s 704 mmHg 94%
10:00 +10°C° 0.9 mm 2 m/s 705 mmHg 93%
11:00 +10°C° 0.2 mm 3 m/s 705 mmHg 88%
12:00 +11°C° 0.2 mm 4 m/s 705 mmHg 82%
13:00 +12°C° 0.2 mm 5 m/s 705 mmHg 76%
14:00 +10°C° 0.1 mm 5 m/s 706 mmHg 77%
15:00 +10°C° 0.1 mm 4 m/s 706 mmHg 78%
16:00 +8°C° 0.1 mm 4 m/s 706 mmHg 79%
17:00 +7°C° 0 mm 3 m/s 706 mmHg 81%
18:00 +5°C° 0 mm 3 m/s 707 mmHg 83%
19:00 +5°C° 0 mm 2 m/s 707 mmHg 85%
20:00 +5°C° 0 mm 2 m/s 707 mmHg 85%
21:00 +4°C° 0 mm 2 m/s 708 mmHg 86%
22:00 +4°C° 0 mm 2 m/s 708 mmHg 87%
23:00 +4°C° 0 mm 2 m/s 708 mmHg 87%

25 Outubro, Domingo

Tempo Temperatura Precipitação Vento Pressão Humidade
00:00 +3°C° 0 mm 2 m/s 708 mmHg 88%
01:00 +4°C° 0 mm 1 m/s 708 mmHg 89%
02:00 +4°C° 0 mm 1 m/s 708 mmHg 89%
03:00 +4°C° 0 mm 1 m/s 708 mmHg 88%
04:00 +3°C° 0 mm 1 m/s 708 mmHg 87%
05:00 +3°C° 0 mm 1 m/s 708 mmHg 86%
06:00 +3°C° 0 mm 1 m/s 708 mmHg 84%
07:00 +4°C° 0 mm 1 m/s 708 mmHg 82%
08:00 +6°C° 0 mm 1 m/s 709 mmHg 74%
09:00 +8°C° 0 mm 1 m/s 709 mmHg 66%
10:00 +10°C° 0 mm 1 m/s 709 mmHg 57%
11:00 +10°C° 0 mm 0 m/s 709 mmHg 54%
12:00 +10°C° 0 mm 0 m/s 709 mmHg 51%
13:00 +11°C° 0 mm 0 m/s 709 mmHg 48%
14:00 +10°C° 0 mm 0 m/s 708 mmHg 54%
15:00 +9°C° 0 mm 0 m/s 708 mmHg 61%
16:00 +8°C° 0 mm 0 m/s 708 mmHg 67%
17:00 +8°C° 0 mm 1 m/s 707 mmHg 70%
18:00 +7°C° 0 mm 1 m/s 707 mmHg 73%
19:00 +6°C° 0 mm 1 m/s 707 mmHg 76%
20:00 +6°C° 0 mm 1 m/s 707 mmHg 78%
21:00 +5°C° 0 mm 1 m/s 707 mmHg 79%
22:00 +5°C° 0 mm 1 m/s 707 mmHg 81%
23:00 +5°C° 0 mm 1 m/s 707 mmHg 81%

26 Outubro, Segunda-feira

Tempo Temperatura Precipitação Vento Pressão Humidade
00:00 +5°C° 0 mm 1 m/s 707 mmHg 82%
01:00 +5°C° 0 mm 1 m/s 707 mmHg 82%
02:00 +5°C° 0 mm 1 m/s 707 mmHg 81%
03:00 +5°C° 0 mm 1 m/s 707 mmHg 81%
04:00 +4°C° 0 mm 1 m/s 706 mmHg 80%
05:00 +4°C° 0 mm 1 m/s 706 mmHg 79%
06:00 +5°C° 0 mm 1 m/s 706 mmHg 79%
07:00 +5°C° 0 mm 1 m/s 706 mmHg 78%
08:00 +7°C° 0 mm 1 m/s 706 mmHg 73%
09:00 +9°C° 0 mm 1 m/s 707 mmHg 67%
10:00 +11°C° 0 mm 1 m/s 707 mmHg 61%
11:00 +12°C° 0 mm 2 m/s 707 mmHg 60%
12:00 +13°C° 0 mm 2 m/s 706 mmHg 59%
13:00 +14°C° 0 mm 2 m/s 706 mmHg 58%
14:00 +13°C° 0 mm 2 m/s 706 mmHg 63%
15:00 +10°C° 0 mm 2 m/s 706 mmHg 69%
16:00 +10°C° 0 mm 1 m/s 705 mmHg 75%
17:00 +9°C° 0 mm 1 m/s 705 mmHg 77%
18:00 +8°C° 0 mm 1 m/s 706 mmHg 79%
19:00 +7°C° 0 mm 1 m/s 706 mmHg 81%
20:00 +7°C° 0 mm 1 m/s 706 mmHg 80%
21:00 +7°C° 0 mm 1 m/s 706 mmHg 80%
22:00 +6°C° 0 mm 1 m/s 707 mmHg 79%
23:00 +6°C° 0 mm 1 m/s 707 mmHg 78%

27 Outubro, Terça-feira

Tempo Temperatura Precipitação Vento Pressão Humidade
00:00 +6°C° 0 mm 1 m/s 707 mmHg 78%
01:00 +6°C° 0 mm 1 m/s 707 mmHg 77%
02:00 +6°C° 0 mm 1 m/s 707 mmHg 77%
03:00 +6°C° 0 mm 1 m/s 708 mmHg 77%
04:00 +6°C° 0 mm 1 m/s 708 mmHg 77%
05:00 +6°C° 0 mm 1 m/s 708 mmHg 78%
06:00 +6°C° 0 mm 1 m/s 708 mmHg 78%
07:00 +6°C° 0 mm 1 m/s 709 mmHg 78%
08:00 +7°C° 0 mm 0 m/s 709 mmHg 73%
09:00 +10°C° 0 mm 0 m/s 710 mmHg 68%
10:00 +12°C° 0 mm 0 m/s 710 mmHg 63%
11:00 +12°C° 0 mm 0 m/s 710 mmHg 63%
12:00 +14°C° 0 mm 1 m/s 710 mmHg 62%
13:00 +14°C° 0 mm 1 m/s 710 mmHg 61%
14:00 +13°C° 0 mm 1 m/s 710 mmHg 68%
15:00 +12°C° 0 mm 1 m/s 710 mmHg 75%
16:00 +10°C° 0 mm 1 m/s 710 mmHg 82%
17:00 +9°C° 0 mm 1 m/s 710 mmHg 84%
18:00 +9°C° 0 mm 1 m/s 710 mmHg 87%
19:00 +8°C° 0 mm 1 m/s 710 mmHg 90%
20:00 +7°C° 0 mm 1 m/s 710 mmHg 90%
21:00 +6°C° 0 mm 0 m/s 710 mmHg 90%
22:00 +6°C° 0 mm 0 m/s 711 mmHg 90%
23:00 +6°C° 0 mm 0 m/s 711 mmHg 89%
Mostrar mais